QPF
0.06 0.06 0.06 0.07 0.08 0.08 0.08 0.08 0.08 0.07 0.05 0.04 0.04 0.03 0.03 0.02 0.02 0.02 0.02 0.02 0.03 0.03 0.03 0.02 0.02 0.02 0.01 0.01 0.01 0.01 0.02 0.02 0.02 0.02 0.01 0.01 0.01 0.01 0.01 0.00 0.00 0.00 0.00
0.03 0.03 0.04 0.05 0.05 0.05 0.05 0.05 0.05 0.04 0.03 0.03 0.02 0.01 0.01 0.01 0.01 0.01 0.01 0.02 0.02 0.01 0.01 0.01 0.01 0.01 0.00 0.00 0.01 0.01 0.01 0.01 0.01 0.01 0.01 0.00 0.00 0.00 0.00 0.00 0.00 0.00 0.00
0.02 0.02 0.02 0.02 0.02 0.03 0.02 0.03 0.03 0.02 0.02 0.01 0.01 0.01 0.00 0.00 0.00 0.00 0.00 0.00 0.00 0.00 0.00 0.00 0.00 0.00 0.01 0.01 0.01 0.01 0.01 0.00 0.00 0.00 0.00 0.00 0.00 0.00 0.00 0.00 0.00 0.00 0.00
0.01 0.01 0.01 0.01 0.01 0.01 0.01 0.01 0.01 0.01 0.01 0.01 0.00 0.00 0.00 0.00 0.00 0.00 0.00 0.00 0.00 0.00 0.00 0.00 0.00 0.00 0.00 0.00 0.00 0.00 0.00 0.00 0.00 0.00 0.00 0.00 0.00 0.00 0.00 0.00 0.00 0.00 0.00
0.00 0.00 0.00 0.00 0.00 0.00 0.00 0.00 0.00 0.00 0.00 0.00 0.00 0.00 0.00 0.00 0.00 0.00 0.00 0.00 0.00 0.00 0.00 0.00 0.00 0.00 0.00 0.00 0.00 0.00 0.00 0.00 0.00 0.00 0.00 0.00 0.00 0.00 0.00 0.00 0.00 0.00 0.00
0.00 0.00 0.00 0.00 0.00 0.00 0.00 0.00 0.00 0.00 0.00 0.00 0.00 0.00 0.00 0.00 0.00 0.00 0.00 0.00 0.00 0.00 0.00 0.00 0.00 0.00 0.00 0.00 0.00 0.00 0.00 0.00 0.00 0.00 0.00 0.00 0.00 0.00 0.00 0.00 0.00 0.00 0.00
0.00 0.00 0.00 0.00 0.00 0.00 0.00 0.00 0.00 0.00 0.00 0.00 0.00 0.00 0.00 0.00 0.00 0.00 0.00 0.00 0.00 0.00 0.00 0.00 0.00 0.00 0.00 0.00 0.00 0.00 0.00 0.00 0.00 0.00 0.00 0.00 0.00 0.00 0.00 0.00 0.00 0.00 0.00
0.00 0.00 0.00 0.00 0.00 0.00 0.00 0.00 0.00 0.00 0.00 0.00 0.00 0.00 0.00 0.00 0.00 0.00 0.00 0.00 0.00 0.00 0.00 0.00 0.00 0.00 0.00 0.00 0.00 0.00 0.00 0.00 0.00 0.01 0.00 0.00 0.00 0.00 0.00 0.00 0.00 0.00 0.00
0.00 0.00 0.00 0.00 0.00 0.00 0.00 0.00 0.00 0.00 0.00 0.00 0.00 0.00 0.00 0.00 0.00 0.00 0.00 0.00 0.00 0.00 0.00 0.00 0.00 0.00 0.00 0.00 0.00 0.00 0.00 0.00 0.00 0.00 0.00 0.00 0.00 0.00 0.00 0.00 0.00 0.00 0.00
0.00 0.00 0.00 0.00 0.00 0.00 0.00 0.00 0.00 0.00 0.00 0.00 0.00 0.00 0.00 0.00 0.00 0.00 0.00 0.00 0.00 0.00 0.00 0.00 0.00 0.00 0.00 0.00 0.00 0.00 0.00 0.00 0.00 0.00 0.00 0.00 0.01 0.01 0.01 0.01 0.01 0.01 0.01
0.00 0.00 0.00 0.00 0.00 0.00 0.00 0.00 0.00 0.00 0.00 0.00 0.00 0.00 0.00 0.00 0.00 0.00 0.00 0.00 0.00 0.00 0.00 0.00 0.00 0.00 0.00 0.00 0.00 0.00 0.00 0.00 0.00 0.01 0.01 0.01 0.01 0.01 0.01 0.01 0.01 0.01 0.01
0.00 0.00 0.00 0.00 0.00 0.00 0.00 0.00 0.00 0.00 0.00 0.00 0.00 0.00 0.00 0.00 0.00 0.00 0.00 0.00 0.00 0.00 0.00 0.00 0.00 0.00 0.00 0.00 0.00 0.00 0.00 0.00 0.00 0.01 0.01 0.00 0.00 0.00 0.01 0.01 0.01 0.01 0.01
0.00 0.00 0.00 0.00 0.00 0.00 0.00 0.00 0.00 0.00 0.00 0.00 0.00 0.00 0.00 0.00 0.00 0.00 0.00 0.00 0.00 0.00 0.00 0.00 0.00 0.00 0.00 0.00 0.00 0.00 0.00 0.00 0.00 0.00 0.00 0.00 0.01 0.01 0.00 0.00 0.00 0.01 0.01
0.00 0.00 0.00 0.00 0.00 0.00 0.00 0.00 0.00 0.00 0.00 0.00 0.00 0.00 0.00 0.00 0.00 0.00 0.00 0.00 0.00 0.00 0.00 0.00 0.00 0.00 0.00 0.00 0.00 0.00 0.00 0.00 0.00 0.00 0.00 0.00 0.01 0.00 0.00 0.01 0.00 0.00 0.00
0.00 0.00 0.01 0.00 0.00 0.00 0.00 0.00 0.00 0.00 0.00 0.00 0.00 0.00 0.00 0.00 0.00 0.00 0.00 0.00 0.00 0.00 0.00 0.00 0.00 0.00 0.00 0.00 0.01 0.00 0.00 0.00 0.00 0.00 0.00 0.00 0.01 0.00 0.01 0.01 0.01 0.00 0.00
0.00 0.00 0.00 0.00 0.00 0.00 0.00 0.00 0.00 0.00 0.00 0.00 0.00 0.00 0.00 0.00 0.00 0.00 0.00 0.00 0.00 0.00 0.00 0.00 0.01 0.00 0.00 0.00 0.00 0.00 0.00 0.00 0.00 0.00 0.00 0.00 0.00 0.01 0.00 0.00 0.00 0.00 0.00
0.00 0.00 0.00 0.00 0.00 0.00 0.00 0.00 0.00 0.00 0.00 0.00 0.00 0.00 0.00 0.00 0.00 0.00 0.00 0.00 0.00 0.00 0.00 0.00 0.01 0.00 0.00 0.00 0.00 0.00 0.00 0.00 0.00 0.00 0.00 0.00 0.00 0.00 0.01 0.01 0.00 0.00 0.00
0.00 0.00 0.00 0.00 0.00 0.00 0.00 0.00 0.00 0.00 0.00 0.00 0.00 0.00 0.00 0.00 0.00 0.00 0.00 0.00 0.00 0.00 0.00 0.00 0.00 0.00 0.00 0.00 0.00 0.00 0.00 0.00 0.00 0.00 0.00 0.00 0.00 0.00 0.00 0.00 0.00 0.00 0.00
0.00 0.00 0.00 0.00 0.00 0.00 0.00 0.00 0.00 0.00 0.00 0.00 0.00 0.00 0.00 0.00 0.00 0.00 0.00 0.00 0.00 0.00 0.00 0.00 0.00 0.00 0.00 0.00 0.00 0.00 0.00 0.00 0.00 0.00 0.00 0.00 0.00 0.00 0.00 0.00 0.00 0.00 0.00
0.00 0.00 0.00 0.00 0.00 0.00 0.00 0.00 0.00 0.00 0.00 0.00 0.00 0.00 0.00 0.00 0.00 0.00 0.00 0.00 0.00 0.00 0.00 0.00 0.00 0.00 0.00 0.00 0.00 0.00 0.00 0.00 0.00 0.00 0.00 0.00 0.00 0.00 0.00 0.00 0.00 0.00 0.00
0.00 0.00 0.00 0.00 0.00 0.00 0.00 0.00 0.00 0.00 0.00 0.00 0.00 0.00 0.00 0.00 0.00 0.00 0.00 0.00 0.00 0.00 0.00 0.00 0.00 0.00 0.00 0.00 0.00 0.00 0.00 0.00 0.00 0.00 0.00 0.00 0.00 0.00 0.00 0.00 0.00 0.00 0.00
0.00 0.00 0.00 0.00 0.00 0.00 0.00 0.00 0.00 0.00 0.00 0.00 0.00 0.00 0.00 0.00 0.00 0.00 0.00 0.00 0.00 0.00 0.00 0.00 0.00 0.00 0.00 0.00 0.00 0.00 0.00 0.00 0.00 0.00 0.00 0.00 0.00 0.00 0.00 0.00 0.00 0.00 0.00
0.00 0.00 0.00 0.00 0.00 0.00 0.00 0.00 0.00 0.00 0.00 0.00 0.00 0.00 0.00 0.00 0.00 0.00 0.00 0.00 0.00 0.00 0.00 0.00 0.00 0.00 0.00 0.00 0.00 0.00 0.00 0.00 0.00 0.00 0.00 0.00 0.00 0.00 0.00 0.00 0.00 0.00 0.00
0.00 0.00 0.00 0.00 0.00 0.00 0.00 0.00 0.00 0.00 0.00 0.00 0.00 0.00 0.00 0.00 0.00 0.00 0.00 0.00 0.00 0.00 0.00 0.00 0.00 0.00 0.00 0.00 0.00 0.00 0.00 0.00 0.00 0.00 0.00 0.00 0.00 0.00 0.00 0.00 0.00 0.00 0.00
0.00 0.00 0.00 0.00 0.00 0.00 0.00 0.00 0.00 0.00 0.00 0.00 0.00 0.00 0.00 0.00 0.00 0.00 0.00 0.00 0.00 0.00 0.00 0.00 0.00 0.00 0.00 0.00 0.00 0.00 0.00 0.00 0.00 0.00 0.00 0.00 0.00 0.00 0.00 0.00 0.00 0.00 0.00
0.00 0.00 0.00 0.00 0.00 0.00 0.00 0.00 0.00 0.00 0.00 0.00 0.00 0.00 0.00 0.00 0.00 0.00 0.00 0.00 0.00 0.00 0.00 0.00 0.00 0.00 0.00 0.00 0.00 0.00 0.00 0.00 0.00 0.00 0.00 0.00 0.00 0.00 0.00 0.00 0.00 0.00 0.00
MSLP
1020.46 1020.73 1021.04 1021.39 1021.77 1022.20 1022.65 1023.12 1023.59 1024.05 1024.48 1024.85 1025.14 1025.33 1025.43 1025.43 1025.35 1025.20 1025.02 1024.83 1024.66 1024.52 1024.43 1024.38 1024.37 1024.39 1024.42 1024.43 1024.43 1024.39 1024.29 1024.14 1023.93 1023.65 1023.32 1022.93 1022.49 1022.02 1021.53 1021.04 1020.55 1020.09 1019.65
1021.44 1021.70 1021.98 1022.29 1022.64 1023.03 1023.45 1023.89 1024.34 1024.78 1025.18 1025.51 1025.76 1025.91 1025.96 1025.90 1025.77 1025.58 1025.35 1025.13 1024.93 1024.76 1024.65 1024.58 1024.55 1024.54 1024.55 1024.56 1024.56 1024.52 1024.45 1024.33 1024.15 1023.91 1023.60 1023.22 1022.78 1022.28 1021.74 1021.17 1020.59 1020.01 1019.46
1022.22 1022.48 1022.76 1023.06 1023.39 1023.76 1024.16 1024.58 1025.00 1025.42 1025.79 1026.09 1026.30 1026.41 1026.41 1026.31 1026.14 1025.91 1025.66 1025.41 1025.19 1025.01 1024.87 1024.78 1024.73 1024.70 1024.69 1024.68 1024.66 1024.61 1024.54 1024.43 1024.27 1024.06 1023.77 1023.41 1022.98 1022.47 1021.89 1021.28 1020.63 1019.99 1019.37
1022.81 1023.09 1023.38 1023.68 1024.01 1024.37 1024.75 1025.15 1025.56 1025.95 1026.29 1026.57 1026.75 1026.82 1026.79 1026.67 1026.47 1026.23 1025.97 1025.71 1025.48 1025.29 1025.15 1025.04 1024.96 1024.90 1024.85 1024.80 1024.74 1024.67 1024.58 1024.45 1024.29 1024.08 1023.80 1023.45 1023.03 1022.52 1021.95 1021.32 1020.66 1019.99 1019.34
1023.28 1023.58 1023.88 1024.19 1024.52 1024.86 1025.23 1025.61 1025.99 1026.36 1026.68 1026.93 1027.09 1027.15 1027.10 1026.97 1026.77 1026.53 1026.27 1026.03 1025.80 1025.61 1025.46 1025.33 1025.23 1025.13 1025.03 1024.93 1024.81 1024.68 1024.53 1024.37 1024.17 1023.94 1023.66 1023.31 1022.89 1022.41 1021.85 1021.25 1020.61 1019.96 1019.32
1023.68 1024.00 1024.31 1024.62 1024.93 1025.25 1025.59 1025.95 1026.31 1026.64 1026.94 1027.17 1027.32 1027.38 1027.34 1027.21 1027.03 1026.80 1026.56 1026.33 1026.12 1025.94 1025.77 1025.63 1025.49 1025.34 1025.18 1025.01 1024.82 1024.61 1024.39 1024.15 1023.90 1023.63 1023.32 1022.96 1022.56 1022.10 1021.58 1021.03 1020.44 1019.85 1019.27
1024.07 1024.40 1024.70 1024.99 1025.27 1025.56 1025.87 1026.19 1026.51 1026.82 1027.10 1027.32 1027.46 1027.52 1027.49 1027.39 1027.23 1027.03 1026.81 1026.59 1026.39 1026.21 1026.04 1025.87 1025.69 1025.49 1025.26 1025.01 1024.73 1024.43 1024.12 1023.81 1023.48 1023.15 1022.81 1022.45 1022.05 1021.62 1021.15 1020.66 1020.15 1019.65 1019.15
1024.48 1024.80 1025.08 1025.34 1025.58 1025.83 1026.09 1026.36 1026.64 1026.92 1027.17 1027.38 1027.53 1027.59 1027.59 1027.50 1027.37 1027.19 1026.99 1026.79 1026.59 1026.39 1026.20 1026.00 1025.77 1025.51 1025.22 1024.89 1024.53 1024.15 1023.75 1023.36 1022.96 1022.58 1022.20 1021.82 1021.43 1021.03 1020.62 1020.21 1019.79 1019.38 1018.98
1024.90 1025.20 1025.46 1025.67 1025.87 1026.07 1026.27 1026.50 1026.74 1026.99 1027.22 1027.42 1027.57 1027.65 1027.65 1027.59 1027.47 1027.30 1027.11 1026.91 1026.70 1026.48 1026.25 1026.01 1025.74 1025.43 1025.07 1024.67 1024.24 1023.79 1023.33 1022.87 1022.42 1021.99 1021.58 1021.18 1020.81 1020.44 1020.09 1019.74 1019.41 1019.09 1018.80
1025.31 1025.59 1025.81 1025.99 1026.14 1026.29 1026.46 1026.64 1026.85 1027.07 1027.29 1027.48 1027.63 1027.71 1027.73 1027.68 1027.56 1027.40 1027.20 1026.98 1026.74 1026.48 1026.22 1025.93 1025.61 1025.25 1024.85 1024.40 1023.93 1023.43 1022.92 1022.42 1021.93 1021.47 1021.04 1020.64 1020.28 1019.94 1019.63 1019.35 1019.09 1018.85 1018.64
1025.68 1025.93 1026.13 1026.27 1026.40 1026.51 1026.65 1026.81 1026.99 1027.20 1027.41 1027.60 1027.75 1027.83 1027.85 1027.80 1027.68 1027.50 1027.28 1027.02 1026.74 1026.45 1026.13 1025.80 1025.43 1025.04 1024.61 1024.14 1023.65 1023.13 1022.61 1022.09 1021.59 1021.12 1020.68 1020.28 1019.92 1019.61 1019.32 1019.08 1018.87 1018.69 1018.54
1025.95 1026.19 1026.37 1026.51 1026.62 1026.73 1026.85 1027.00 1027.18 1027.38 1027.59 1027.78 1027.92 1028.01 1028.03 1027.96 1027.83 1027.63 1027.37 1027.08 1026.75 1026.41 1026.05 1025.68 1025.28 1024.87 1024.43 1023.96 1023.47 1022.96 1022.45 1021.94 1021.45 1020.98 1020.54 1020.14 1019.78 1019.47 1019.19 1018.97 1018.78 1018.63 1018.52
1026.12 1026.35 1026.53 1026.67 1026.79 1026.91 1027.05 1027.21 1027.40 1027.60 1027.81 1028.00 1028.14 1028.22 1028.23 1028.15 1028.00 1027.77 1027.48 1027.15 1026.79 1026.40 1026.01 1025.61 1025.20 1024.78 1024.35 1023.90 1023.44 1022.96 1022.48 1022.00 1021.52 1021.06 1020.62 1020.21 1019.84 1019.51 1019.23 1019.00 1018.81 1018.66 1018.55
1026.16 1026.40 1026.59 1026.76 1026.91 1027.06 1027.22 1027.40 1027.61 1027.82 1028.03 1028.21 1028.35 1028.42 1028.42 1028.33 1028.15 1027.90 1027.59 1027.23 1026.85 1026.44 1026.03 1025.63 1025.22 1024.82 1024.41 1024.00 1023.58 1023.14 1022.70 1022.24 1021.79 1021.33 1020.88 1020.46 1020.06 1019.71 1019.39 1019.13 1018.91 1018.75 1018.63
1026.10 1026.35 1026.57 1026.78 1026.96 1027.15 1027.35 1027.55 1027.77 1027.99 1028.19 1028.37 1028.49 1028.55 1028.53 1028.42 1028.24 1027.98 1027.66 1027.30 1026.91 1026.51 1026.11 1025.72 1025.34 1024.97 1024.61 1024.24 1023.87 1023.48 1023.07 1022.65 1022.20 1021.75 1021.28 1020.83 1020.39 1019.99 1019.63 1019.31 1019.06 1018.86 1018.72
1025.96 1026.23 1026.49 1026.73 1026.95 1027.18 1027.40 1027.63 1027.85 1028.06 1028.25 1028.40 1028.50 1028.54 1028.51 1028.40 1028.21 1027.96 1027.66 1027.32 1026.96 1026.59 1026.23 1025.88 1025.55 1025.23 1024.91 1024.60 1024.27 1023.93 1023.55 1023.15 1022.71 1022.24 1021.75 1021.25 1020.77 1020.31 1019.89 1019.52 1019.22 1018.98 1018.80
1025.79 1026.08 1026.36 1026.64 1026.90 1027.15 1027.39 1027.61 1027.82 1028.01 1028.17 1028.29 1028.36 1028.38 1028.34 1028.23 1028.06 1027.84 1027.58 1027.29 1026.98 1026.67 1026.37 1026.08 1025.81 1025.55 1025.29 1025.03 1024.75 1024.44 1024.08 1023.69 1023.24 1022.75 1022.23 1021.68 1021.14 1020.62 1020.14 1019.72 1019.37 1019.09 1018.87
1025.61 1025.92 1026.22 1026.52 1026.80 1027.06 1027.30 1027.51 1027.70 1027.85 1027.97 1028.06 1028.10 1028.10 1028.05 1027.95 1027.81 1027.64 1027.43 1027.21 1026.98 1026.75 1026.52 1026.31 1026.10 1025.91 1025.70 1025.49 1025.24 1024.95 1024.61 1024.21 1023.75 1023.24 1022.68 1022.09 1021.50 1020.92 1020.39 1019.92 1019.51 1019.19 1018.95
1025.46 1025.78 1026.09 1026.40 1026.69 1026.95 1027.17 1027.36 1027.51 1027.62 1027.70 1027.75 1027.76 1027.74 1027.69 1027.62 1027.52 1027.40 1027.27 1027.12 1026.98 1026.83 1026.68 1026.55 1026.41 1026.27 1026.11 1025.93 1025.71 1025.43 1025.10 1024.69 1024.21 1023.67 1023.08 1022.45 1021.82 1021.20 1020.62 1020.11 1019.67 1019.31 1019.04
1025.34 1025.65 1025.97 1026.28 1026.56 1026.80 1027.01 1027.17 1027.28 1027.36 1027.40 1027.42 1027.41 1027.39 1027.35 1027.31 1027.25 1027.20 1027.13 1027.07 1027.00 1026.94 1026.87 1026.80 1026.72 1026.62 1026.50 1026.34 1026.12 1025.85 1025.51 1025.09 1024.59 1024.03 1023.41 1022.76 1022.10 1021.45 1020.84 1020.30 1019.83 1019.45 1019.15
1025.24 1025.55 1025.86 1026.15 1026.43 1026.66 1026.84 1026.98 1027.07 1027.12 1027.14 1027.14 1027.13 1027.11 1027.09 1027.08 1027.08 1027.08 1027.08 1027.09 1027.09 1027.09 1027.08 1027.06 1027.01 1026.94 1026.83 1026.67 1026.46 1026.17 1025.82 1025.38 1024.87 1024.29 1023.66 1022.99 1022.32 1021.66 1021.04 1020.48 1019.99 1019.60 1019.28
1025.15 1025.45 1025.74 1026.03 1026.29 1026.51 1026.68 1026.81 1026.89 1026.93 1026.95 1026.95 1026.95 1026.95 1026.96 1026.99 1027.03 1027.08 1027.13 1027.19 1027.25 1027.29 1027.31 1027.31 1027.28 1027.21 1027.09 1026.92 1026.69 1026.39 1026.01 1025.56 1025.04 1024.45 1023.82 1023.15 1022.47 1021.82 1021.20 1020.64 1020.15 1019.74 1019.41
1025.07 1025.34 1025.62 1025.89 1026.15 1026.37 1026.54 1026.67 1026.76 1026.82 1026.85 1026.88 1026.90 1026.92 1026.97 1027.03 1027.10 1027.19 1027.28 1027.37 1027.45 1027.50 1027.54 1027.54 1027.50 1027.41 1027.27 1027.08 1026.82 1026.49 1026.09 1025.63 1025.09 1024.51 1023.87 1023.22 1022.56 1021.91 1021.31 1020.76 1020.27 1019.87 1019.53
1024.97 1025.22 1025.48 1025.75 1026.00 1026.23 1026.42 1026.57 1026.69 1026.77 1026.84 1026.89 1026.94 1027.00 1027.07 1027.15 1027.25 1027.36 1027.47 1027.57 1027.65 1027.71 1027.73 1027.71 1027.65 1027.54 1027.37 1027.14 1026.85 1026.49 1026.07 1025.59 1025.06 1024.47 1023.85 1023.22 1022.58 1021.96 1021.37 1020.84 1020.37 1019.96 1019.63
1024.86 1025.08 1025.34 1025.60 1025.86 1026.10 1026.31 1026.49 1026.64 1026.76 1026.86 1026.95 1027.03 1027.12 1027.21 1027.31 1027.43 1027.54 1027.65 1027.75 1027.82 1027.87 1027.87 1027.83 1027.74 1027.60 1027.40 1027.14 1026.82 1026.44 1026.00 1025.51 1024.98 1024.40 1023.79 1023.18 1022.56 1021.97 1021.41 1020.90 1020.44 1020.05 1019.72
1024.74 1024.95 1025.19 1025.45 1025.72 1025.97 1026.21 1026.42 1026.61 1026.76 1026.89 1027.01 1027.12 1027.22 1027.33 1027.44 1027.56 1027.67 1027.77 1027.86 1027.93 1027.95 1027.94 1027.88 1027.77 1027.61 1027.39 1027.11 1026.77 1026.38 1025.93 1025.43 1024.90 1024.33 1023.74 1023.15 1022.56 1021.99 1021.45 1020.96 1020.53 1020.15 1019.83
Thickness
5629 5628 5626 5622 5619 5616 5614 5610 5607 5604 5601 5597 5594 5592 5590 5588 5585 5583 5580 5577 5574 5570 5567 5565 5561 5558 5554 5550 5547 5542 5537 5532 5526 5522 5522 5521 5518 5516 5514 5512 5509 5507 5505
5614 5613 5610 5607 5605 5602 5598 5595 5593 5590 5587 5583 5580 5578 5575 5573 5570 5567 5565 5562 5559 5555 5552 5549 5546 5542 5537 5533 5529 5524 5519 5515 5509 5504 5502 5501 5500 5499 5497 5495 5494 5492 5490
5599 5597 5595 5592 5590 5587 5584 5581 5578 5576 5573 5569 5566 5563 5561 5558 5556 5553 5551 5548 5544 5541 5538 5534 5530 5526 5521 5517 5512 5507 5502 5499 5493 5488 5484 5484 5484 5484 5483 5482 5481 5479 5478
5585 5583 5580 5577 5575 5573 5570 5567 5564 5562 5559 5555 5552 5550 5547 5544 5542 5539 5537 5533 5531 5528 5524 5521 5517 5512 5507 5503 5498 5493 5488 5483 5478 5474 5471 5470 5470 5471 5469 5467 5467 5468 5468
5572 5569 5566 5564 5562 5559 5557 5554 5552 5549 5546 5543 5540 5537 5535 5532 5529 5526 5524 5521 5517 5514 5511 5508 5504 5500 5495 5491 5487 5481 5477 5472 5468 5464 5462 5460 5459 5459 5458 5457 5456 5457 5459
5559 5556 5554 5552 5549 5546 5544 5541 5539 5536 5533 5531 5528 5525 5522 5519 5517 5515 5512 5508 5505 5502 5498 5495 5492 5488 5484 5480 5477 5474 5470 5466 5461 5458 5456 5454 5454 5454 5453 5452 5450 5448 5449
5546 5544 5542 5540 5537 5535 5533 5530 5527 5524 5521 5518 5515 5512 5509 5507 5506 5504 5501 5498 5494 5491 5488 5485 5482 5479 5475 5472 5469 5468 5466 5464 5462 5458 5455 5454 5454 5454 5451 5450 5449 5446 5445
5535 5533 5531 5529 5527 5524 5522 5519 5516 5513 5510 5507 5505 5502 5499 5497 5495 5493 5491 5488 5485 5483 5480 5477 5474 5472 5469 5466 5464 5463 5463 5463 5462 5460 5457 5457 5457 5456 5453 5450 5448 5446 5446
5526 5524 5522 5519 5517 5514 5511 5509 5507 5504 5501 5499 5496 5493 5491 5488 5487 5484 5482 5479 5476 5475 5473 5472 5470 5468 5466 5463 5461 5460 5460 5462 5463 5462 5461 5460 5460 5459 5456 5451 5448 5444 5443
5517 5515 5513 5510 5508 5505 5503 5501 5499 5497 5494 5492 5489 5486 5484 5481 5479 5476 5474 5471 5468 5467 5467 5467 5466 5465 5464 5462 5459 5457 5457 5459 5460 5461 5462 5462 5461 5460 5458 5454 5450 5444 5441
5510 5508 5505 5503 5501 5499 5497 5495 5493 5490 5487 5484 5482 5479 5476 5474 5471 5470 5468 5465 5462 5461 5461 5462 5463 5463 5463 5463 5461 5458 5458 5458 5458 5458 5458 5459 5459 5459 5458 5455 5452 5447 5442
5503 5500 5498 5496 5495 5493 5490 5488 5485 5483 5480 5477 5474 5472 5470 5468 5466 5464 5462 5461 5460 5458 5457 5459 5460 5462 5463 5464 5463 5462 5461 5460 5458 5457 5456 5455 5455 5455 5456 5455 5453 5450 5446
5495 5493 5491 5489 5487 5485 5483 5480 5477 5475 5472 5470 5467 5465 5463 5462 5460 5459 5458 5458 5457 5456 5456 5458 5459 5462 5463 5463 5462 5462 5461 5458 5456 5454 5453 5453 5453 5454 5454 5454 5453 5450 5448
5489 5486 5485 5482 5479 5477 5475 5473 5470 5467 5465 5464 5462 5459 5457 5456 5455 5455 5455 5455 5455 5455 5456 5457 5459 5460 5460 5460 5460 5459 5458 5456 5454 5452 5451 5452 5453 5453 5452 5451 5449 5447 5445
5484 5481 5478 5476 5473 5470 5468 5466 5465 5463 5462 5459 5457 5455 5453 5452 5452 5452 5450 5451 5451 5452 5452 5453 5454 5454 5454 5454 5454 5454 5454 5453 5452 5451 5450 5449 5450 5450 5450 5449 5447 5445 5442
5478 5475 5472 5470 5467 5464 5462 5459 5460 5459 5458 5457 5455 5453 5452 5451 5451 5450 5450 5451 5452 5452 5450 5448 5448 5448 5448 5448 5447 5448 5448 5448 5447 5448 5447 5447 5447 5447 5447 5448 5446 5444 5442
5473 5471 5468 5467 5464 5461 5458 5456 5454 5454 5454 5454 5453 5452 5451 5451 5450 5450 5450 5451 5452 5451 5448 5446 5445 5445 5444 5444 5444 5443 5442 5443 5444 5444 5444 5444 5445 5446 5445 5446 5445 5444 5443
5470 5468 5466 5464 5462 5460 5458 5455 5453 5451 5451 5451 5452 5452 5451 5451 5450 5450 5449 5449 5447 5447 5444 5443 5443 5442 5442 5441 5440 5439 5439 5440 5440 5441 5441 5442 5442 5443 5444 5444 5444 5444 5444
5468 5465 5463 5462 5461 5459 5458 5455 5453 5451 5450 5449 5449 5449 5450 5450 5450 5449 5448 5445 5443 5442 5442 5441 5440 5439 5439 5438 5437 5436 5436 5436 5436 5437 5438 5439 5440 5441 5442 5443 5444 5446 5445
5466 5466 5463 5461 5459 5458 5456 5454 5452 5450 5449 5448 5447 5447 5447 5447 5445 5445 5445 5443 5442 5441 5440 5438 5438 5437 5436 5435 5434 5433 5433 5433 5434 5434 5435 5437 5438 5440 5441 5443 5444 5445 5445
5466 5465 5464 5461 5458 5457 5455 5453 5452 5450 5448 5447 5446 5446 5447 5444 5443 5443 5442 5442 5441 5439 5438 5436 5435 5434 5433 5432 5431 5431 5430 5430 5431 5431 5433 5435 5437 5439 5441 5443 5445 5447 5447
5466 5464 5462 5460 5458 5456 5454 5453 5451 5449 5448 5447 5446 5446 5447 5444 5443 5442 5441 5441 5440 5438 5437 5436 5434 5432 5431 5429 5429 5428 5428 5428 5430 5430 5432 5434 5436 5439 5442 5444 5446 5447 5448
5467 5464 5462 5460 5458 5457 5454 5452 5451 5449 5448 5447 5447 5446 5445 5443 5442 5442 5441 5440 5439 5437 5436 5434 5432 5431 5429 5429 5428 5427 5427 5427 5428 5429 5430 5433 5436 5439 5441 5444 5447 5449 5449
5468 5466 5463 5461 5458 5456 5454 5452 5451 5450 5449 5448 5447 5446 5444 5443 5442 5442 5441 5440 5438 5436 5434 5432 5431 5429 5429 5428 5428 5428 5429 5430 5431 5433 5433 5434 5437 5440 5443 5445 5448 5450 5450
5469 5467 5464 5461 5459 5456 5454 5452 5451 5450 5449 5448 5447 5446 5444 5443 5442 5442 5440 5439 5437 5435 5433 5431 5430 5429 5429 5429 5429 5430 5432 5433 5435 5437 5439 5439 5441 5443 5445 5447 5449 5451 5452
5472 5469 5466 5463 5460 5458 5455 5453 5452 5451 5450 5449 5448 5446 5445 5444 5442 5442 5441 5439 5437 5435 5432 5431 5430 5429 5429 5430 5430 5432 5434 5436 5439 5441 5443 5444 5445 5446 5448 5450 5452 5453 5455